Date,TemperatureHighF,TemperatureAvgF,TemperatureLowF,DewpointHighF,DewpointAvgF,DewpointLowF,HumidityHigh,HumidityAvg,HumidityLow,PressureMaxIn,PressureMinIn,WindSpeedMaxMPH,WindSpeedAvgMPH,GustSpeedMaxMPH,PrecipitationSumIn
2013-1-1,62,56,52,55,51,46,92,83,75,30.17,29.93,5,1,12,0.00
2013-1-2,64,55,49,59,52,46,95,90,81,30.16,29.87,6,2,14,0.01
2013-1-3,48,45,40,46,42,37,95,92,88,30.25,30.10,5,2,12,0.08
2013-1-4,51,42,35,41,36,34,96,81,58,30.33,30.21,3,1,10,0.01
2013-1-5,51,43,32,39,34,28,89,72,52,30.39,30.27,5,1,9,0.01
2013-1-6,53,48,43,49,44,38,92,83,70,30.28,30.07,5,1,10,0.01
2013-1-7,55,49,41,46,41,35,92,75,52,30.38,30.13,7,3,15,0.01
2013-1-8,60,52,43,53,46,36,92,79,71,30.40,30.30,7,2,15,0.00
2013-1-9,67,60,53,61,55,50,93,86,71,30.37,30.31,4,1,11,0.00
2013-1-10,63,58,55,58,54,46,98,85,70,30.44,30.35,5,2,15,0.01
2013-1-11,71,60,54,65,57,48,97,91,78,30.35,30.15,4,1,10,0.01
2013-1-12,70,63,57,66,61,56,98,92,81,30.17,30.09,6,2,11,0.01
2013-1-13,72,62,58,65,60,56,97,93,78,30.16,30.07,4,1,10,0.01
2013-1-14,65,61,57,64,60,56,99,96,91,30.17,30.09,5,2,11,0.01
2013-1-15,66,61,57,63,60,56,99,96,89,30.15,30.01,4,1,8,0.01
2013-1-16,66,62,59,64,61,58,99,94,85,30.04,29.93,7,2,15,0.01
2013-1-17,66,60,46,64,58,42,98,92,79,29.99,29.72,13,4,27,0.15
2013-1-18,54,45,38,42,34,27,92,67,37,30.49,29.99,11,4,26,0.14
2013-1-19,56,46,36,48,38,30,94,76,55,30.47,30.21,4,1,9,0.00
2013-1-20,68,55,46,48,40,31,96,65,25,30.21,30.01,9,2,19,0.00
2013-1-21,66,54,42,52,39,33,80,60,29,30.07,29.91,7,2,14,0.00
2013-1-22,54,46,36,36,27,19,66,49,30,30.24,29.98,7,2,14,0.00
2013-1-23,47,39,30,38,22,8,74,51,29,30.37,30.14,6,3,13,0.00
2013-1-24,57,46,31,44,31,13,78,58,40,30.50,30.03,10,6,26,0.00
2013-1-25,41,34,27,35,22,8,79,61,43,30.48,30.13,7,3,14,0.00
2013-1-26,56,43,35,38,32,27,78,66,49,30.34,30.10,7,2,15,0.00
2013-1-27,48,40,31,38,32,26,87,73,63,30.53,30.34,7,3,16,0.00
2013-1-28,57,46,37,52,41,31,94,83,73,30.48,30.27,4,1,10,0.00
2013-1-29,63,55,45,60,53,44,98,95,86,30.27,30.12,5,2,12,0.00
2013-1-30,64,59,56,62,58,55,99,96,91,30.12,29.59,9,4,17,0.01
2013-1-31,61,51,45,60,31,24,95,48,31,30.11,29.59,12,6,28,0.12
2013-2-1,55,46,36,33,23,8,61,42,17,30.35,30.09,11,5,27,0.04
2013-2-2,51,42,29,44,28,9,88,61,34,30.39,30.06,5,2,12,0.00
2013-2-3,59,49,42,39,35,31,80,61,38,30.06,29.87,11,4,26,0.00
2013-2-4,49,43,34,37,32,28,82,65,55,30.15,30.00,3,1,8,0.00
2013-2-5,67,53,43,51,42,36,83,70,34,30.06,29.92,7,2,15,0.00
2013-2-6,66,56,50,52,49,47,91,81,51,30.20,29.99,4,2,10,0.00
2013-2-7,60,53,46,55,51,44,97,91,83,30.19,29.73,9,4,22,0.81
2013-2-8,64,56,49,54,49,46,97,81,60,30.02,29.64,8,4,24,0.68
2013-2-9,61,48,38,48,34,24,88,62,28,30.34,30.02,10,3,19,0.00
2013-2-10,57,51,40,53,44,35,92,78,63,30.43,30.21,4,1,13,0.00
2013-2-11,66,60,55,64,58,53,98,94,88,30.25,30.00,7,3,17,0.42
2013-2-12,60,57,49,59,55,46,97,94,87,30.10,29.91,6,2,12,0.55
2013-2-13,67,54,49,62,51,46,99,89,67,29.93,29.66,11,4,24,0.34
2013-2-14,54,49,43,50,41,37,90,74,56,30.07,29.81,6,2,14,0.01
2013-2-15,57,48,39,46,42,37,93,80,56,30.09,29.96,6,2,10,0.00
2013-2-16,55,43,33,44,39,32,95,87,64,29.96,29.77,10,3,29,0.15
2013-2-17,42,34,29,32,24,18,95,70,40,30.29,29.95,13,3,27,0.11
2013-2-18,50,40,29,36,29,22,86,64,42,30.44,30.28,5,2,10,0.01
2013-2-19,60,52,38,56,48,34,95,88,73,30.27,29.94,9,2,22,0.05
2013-2-20,53,47,38,48,37,27,93,69,37,30.13,29.99,6,2,13,0.03
2013-2-21,52,46,38,46,35,23,85,66,40,30.19,30.07,5,2,10,0.00
2013-2-22,52,49,45,50,45,36,96,86,70,30.24,30.04,8,3,20,0.11
2013-2-23,49,46,43,48,45,42,98,97,96,30.04,29.76,6,2,13,0.45
2013-2-24,66,53,47,52,48,42,98,87,41,29.98,29.73,7,3,15,0.07
2013-2-25,49,46,43,47,40,36,96,80,63,30.13,29.95,8,3,22,0.02
2013-2-26,63,55,44,63,54,42,99,96,88,30.02,29.57,11,4,21,0.76
2013-2-27,61,53,48,57,44,38,94,71,55,29.85,29.66,12,4,24,0.02
2013-2-28,58,51,45,43,38,33,85,62,40,29.85,29.73,11,4,25,0.00
2013-3-1,55,46,39,36,33,31,75,61,44,29.92,29.83,6,2,20,0.00
2013-3-2,49,43,38,38,35,32,87,73,54,29.90,29.81,6,2,15,0.00
2013-3-3,49,41,36,36,28,24,90,60,41,29.97,29.85,8,4,22,0.00
2013-3-4,54,42,31,31,23,19,77,49,27,30.13,29.96,9,3,20,0.00
2013-3-5,62,52,42,55,45,32,91,78,64,30.11,29.64,9,4,19,0.01
2013-3-6,62,50,42,55,33,25,85,53,37,30.01,29.60,15,8,35,0.01
2013-3-7,58,47,36,35,32,29,78,57,38,30.19,30.03,8,4,17,0.01
2013-3-8,58,47,37,33,30,27,72,53,32,30.25,30.13,9,4,20,0.00
2013-3-9,57,48,38,45,36,29,84,65,42,30.30,30.22,7,2,15,0.00
2013-3-10,59,50,40,49,44,37,90,80,62,30.30,30.22,3,0,7,0.00
2013-3-11,64,56,48,57,52,45,95,88,74,30.22,29.92,6,1,13,0.00
2013-3-12,70,60,57,64,58,51,98,92,75,29.93,29.77,8,3,19,0.21
2013-3-13,64,55,46,51,36,25,78,50,23,30.09,29.88,11,4,27,0.01
2013-3-14,55,46,36,29,24,19,55,42,28,30.26,30.06,9,4,19,0.00
2013-3-15,56,48,37,48,36,27,80,63,42,30.21,29.99,9,3,16,0.00
2013-3-16,78,63,56,54,49,45,81,61,34,29.99,29.78,11,6,25,0.00
2013-3-17,76,63,58,57,52,47,85,69,47,30.01,29.88,9,4,18,0.00
2013-3-18,62,55,50,54,51,48,96,88,70,30.09,29.83,7,2,16,0.01
2013-3-19,72,60,53,56,50,39,98,76,40,29.96,29.76,10,3,23,0.31
2013-3-20,61,53,44,40,32,19,78,48,24,30.09,29.80,6,2,13,0.01
2013-3-21,55,47,41,40,25,14,87,46,24,29.93,29.72,9,4,23,0.00
2013-3-22,50,42,32,38,25,16,67,50,30,30.09,29.93,6,3,13,0.00
2013-3-23,52,47,42,48,41,34,90,81,56,30.06,29.89,5,1,12,0.23
2013-3-24,62,52,45,60,50,43,97,92,81,29.91,29.41,9,4,19,1.55
2013-3-25,52,46,44,44,40,32,95,79,48,29.67,29.55,14,6,32,0.01
2013-4-5,55,52,49,50,49,46,94,88,82,30.01,29.90,0,0,4,0.28
2013-4-6,64,55,46,54,48,44,95,80,59,30.25,30.00,5,2,13,0.00
2013-4-7,64,58,49,59,54,47,94,87,77,30.25,30.14,4,1,8,0.00
2013-4-8,68,63,58,62,60,57,97,89,79,30.19,30.10,6,1,11,0.01
2013-4-9,70,65,61,66,63,59,96,91,86,30.21,30.10,7,2,12,0.01
2013-4-10,72,66,62,65,63,61,96,90,79,30.14,30.01,9,3,18,0.01
2013-4-11,71,66,61,68,64,60,99,94,88,30.01,29.84,11,3,18,0.01
2013-4-12,72,67,65,71,66,64,98,96,89,29.85,29.70,8,4,17,1.22
2013-4-13,74,65,57,68,56,46,98,75,42,30.00,29.76,7,2,17,0.01
2013-4-14,69,61,54,63,58,53,98,90,71,30.08,29.98,4,1,8,0.02
2013-4-15,70,65,61,63,62,59,96,88,77,30.14,29.86,10,2,23,0.45
2013-4-16,74,66,60,66,62,58,96,87,77,30.24,30.14,3,1,9,0.04
2013-4-17,73,67,60,67,64,59,98,91,79,30.21,30.12,3,1,8,0.01
2013-4-18,77,69,65,69,66,64,97,91,73,30.15,30.02,2,0,8,0.01
2013-4-19,73,70,66,71,68,65,98,94,90,30.03,29.84,14,5,21,0.55
2013-4-20,68,58,50,67,51,42,98,80,53,30.22,29.87,8,3,20,0.64
2013-4-21,64,56,47,52,47,41,88,72,58,30.35,30.22,10,5,22,0.01
2013-4-22,69,56,46,52,46,36,86,70,55,30.34,30.12,10,6,21,0.00
2013-4-23,67,58,51,57,52,48,93,82,66,30.19,30.11,9,4,20,0.00
2013-4-24,70,62,53,65,59,52,96,88,81,30.17,30.04,10,2,17,0.00
2013-4-25,75,66,60,66,63,58,96,89,71,30.22,30.05,6,2,12,0.44
2013-4-26,71,62,52,59,54,49,96,79,54,30.38,30.21,4,1,11,0.26
2013-4-27,72,64,60,60,57,48,92,78,53,30.32,30.22,4,1,9,0.00
2013-4-28,70,66,63,65,61,-100,93,87,82,30.22,30.05,7,2,14,0.00
2013-4-29,68,66,63,66,64,62,97,93,86,30.06,29.95,7,2,12,1.39
2013-4-30,73,67,64,67,64,62,98,90,75,30.08,29.94,7,1,12,0.28
2013-5-1,73,65,59,65,60,57,94,86,71,30.17,30.05,8,4,16,0.00
2013-5-2,71,66,63,65,62,58,94,88,81,30.19,30.13,6,4,20,0.00
2013-5-3,68,63,59,61,57,47,91,81,59,30.13,30.04,10,5,23,0.00
2013-5-4,64,60,55,60,55,49,91,85,77,30.05,29.93,8,5,27,0.04
2013-5-5,71,64,59,64,61,56,95,90,78,29.96,29.83,8,4,20,0.10
2013-5-6,70,66,61,65,61,55,97,86,68,29.88,29.80,10,4,18,0.23
2013-5-7,66,61,55,60,55,52,90,81,64,29.95,29.85,9,3,20,0.16
2013-5-8,70,64,57,63,59,54,93,83,68,30.01,29.92,11,4,17,0.08
2013-5-9,74,68,63,67,63,58,89,82,66,30.06,29.96,7,3,14,0.00
2013-5-10,75,69,65,68,62,-100,92,84,74,30.06,29.98,7,3,15,0.00
2013-5-11,74,71,69,70,68,66,95,89,77,30.00,29.83,8,4,17,0.00
2013-5-12,82,74,68,68,59,-100,88,64,37,29.95,29.79,7,3,19,0.00
2013-5-13,72,65,57,53,43,38,65,47,29,30.11,29.94,10,4,19,0.00
2013-5-14,68,63,54,56,46,39,75,55,40,30.24,30.10,8,4,17,0.00
2013-5-15,80,70,64,66,60,53,78,70,47,30.13,29.96,10,4,19,0.00
2013-5-16,87,70,67,70,41,-100,85,70,46,30.01,29.94,7,3,14,0.00
2013-5-17,82,72,68,70,59,-100,87,79,59,30.08,29.99,7,4,16,0.00
2013-5-18,78,73,68,72,69,65,94,88,79,30.14,30.07,6,2,12,0.00
2013-5-19,77,73,71,72,70,68,95,89,79,30.13,30.06,10,3,18,0.02
2013-5-20,74,72,71,71,70,68,95,93,88,30.11,30.02,7,3,13,0.48
2013-5-21,75,72,71,73,70,69,96,93,86,30.06,29.96,7,3,15,0.08
2013-5-22,82,75,69,75,72,68,97,90,79,30.02,29.91,7,2,13,0.01
2013-5-23,78,74,68,74,71,66,96,92,83,29.95,29.83,8,2,19,0.47
2013-5-24,81,73,63,70,60,43,95,68,35,30.14,29.78,9,4,24,0.43
2013-5-25,76,65,53,58,46,39,73,54,26,30.27,30.13,6,3,15,0.01
2013-5-26,75,68,59,64,56,50,88,68,45,30.23,30.13,5,2,11,0.00
2013-5-27,78,73,66,69,64,61,92,75,61,30.24,30.16,5,2,9,0.00
2013-5-28,79,75,71,71,69,67,90,82,72,30.24,30.17,7,2,12,0.00
2013-5-29,80,76,73,71,68,67,87,77,68,30.25,30.14,7,2,13,0.00
2013-5-30,83,77,68,75,71,66,95,82,73,30.25,30.17,7,2,12,0.00
2013-5-31,81,77,71,74,72,69,95,85,77,30.21,30.12,7,3,13,0.01
2013-6-1,80,77,71,72,71,69,94,83,74,30.14,30.06,9,4,14,0.01
2013-6-2,81,77,74,75,72,-100,93,87,79,30.09,29.93,10,5,18,0.00
2013-6-3,77,74,70,75,72,67,96,93,87,29.94,29.83,10,3,19,0.84
2013-6-4,84,76,70,76,73,69,98,90,76,30.03,29.88,3,0,8,0.06
2013-6-5,80,76,75,75,73,71,94,90,83,30.05,29.96,5,2,12,0.01
2013-6-6,79,76,73,76,74,71,96,93,89,29.98,29.74,8,3,16,0.89
2013-6-7,83,77,73,75,74,71,97,89,71,29.83,29.54,20,8,32,1.87
2013-6-8,85,79,77,77,75,71,95,86,64,30.07,29.82,9,4,17,0.02
2013-6-9,83,79,76,79,76,74,96,91,83,30.12,30.05,9,3,16,0.00
2013-6-10,81,79,71,77,76,69,94,90,86,30.10,29.94,14,7,24,0.18
2013-6-11,88,78,70,77,73,68,96,86,63,29.99,29.88,9,3,21,0.27
2013-6-12,86,80,74,80,77,73,97,89,82,29.96,29.86,7,2,12,0.11
2013-6-13,96,86,79,80,77,74,95,77,52,29.88,29.65,10,3,21,0.01
2013-6-14,86,80,73,77,64,58,88,61,40,29.96,29.66,9,4,21,0.00
2013-6-15,82,79,75,67,61,55,71,56,42,30.11,29.97,8,3,15,0.00
2013-6-16,81,78,72,69,66,63,76,66,57,30.14,30.04,9,5,20,0.00
2013-6-17,83,79,74,75,72,67,87,80,69,30.06,29.94,11,5,18,0.01
2013-6-18,88,80,74,78,74,69,93,83,64,29.98,29.80,13,4,21,0.23
2013-6-19,81,78,74,76,73,70,91,86,76,30.03,29.83,7,3,14,0.10
2013-6-20,84,75,69,73,69,66,92,83,68,30.14,30.02,7,3,14,0.10
2013-6-22,81,78,74,75,74,73,96,87,83,30.13,30.08,7,3,14,0.23
2013-6-23,85,79,74,78,75,72,96,87,75,30.17,30.11,9,3,16,0.01
2013-6-24,82,80,77,77,76,74,94,88,78,30.20,30.11,9,4,17,0.13
2013-6-25,84,80,77,77,76,74,93,87,78,30.13,30.01,10,4,18,0.01
2013-6-26,87,79,75,77,74,72,93,85,66,30.03,29.92,13,3,19,0.20
2013-6-27,86,79,75,79,76,69,94,89,74,29.97,29.75,11,4,21,0.04
2013-6-28,85,82,78,80,77,74,92,86,75,29.79,29.62,10,5,18,0.01
2013-6-29,84,79,73,78,75,71,93,86,74,29.75,29.64,15,5,24,0.13
2013-6-30,82,78,73,78,75,71,95,91,82,29.85,29.71,11,4,20,0.66
2013-7-1,81,78,73,78,75,71,96,91,83,30.02,29.81,18,7,33,1.64
2013-7-2,80,78,73,77,75,71,95,90,84,30.14,30.00,15,5,28,1.05
2013-7-3,83,80,76,79,77,74,94,89,83,30.21,30.11,9,5,15,0.30
2013-7-4,85,82,79,77,76,75,91,84,76,30.23,30.17,8,5,14,0.01
2013-7-5,85,82,80,79,77,75,91,85,80,30.23,30.16,9,5,15,0.00
2013-7-6,85,82,80,77,75,73,87,81,73,30.21,30.12,7,4,15,0.00
2013-7-7,85,82,80,76,74,72,86,78,71,30.17,30.07,8,5,14,0.04
2013-7-8,85,79,74,75,72,-100,92,81,67,30.16,30.09,8,3,13,0.04
2013-7-9,84,80,76,77,74,72,90,83,76,30.16,30.07,10,4,17,0.00
2013-7-10,86,80,78,77,73,-100,89,80,74,30.11,29.95,7,3,13,0.00
2013-7-11,86,80,77,78,75,73,90,84,67,29.98,29.86,13,4,20,0.00
2013-7-12,80,76,73,76,73,72,96,90,84,29.94,29.85,4,1,14,0.67
2013-7-13,85,79,73,78,75,71,95,88,78,30.08,29.92,11,3,20,0.05
2013-7-14,88,82,76,79,76,73,91,83,73,30.21,30.08,10,3,23,0.12
2013-7-15,89,83,80,80,77,76,89,83,72,30.24,30.17,2,1,8,0.01
2013-7-16,88,82,75,78,75,73,95,81,69,30.24,30.16,5,2,10,0.00
2013-7-17,91,80,72,80,75,70,96,87,67,30.18,30.07,7,2,19,1.33
2013-7-18,87,79,73,78,75,72,99,88,74,30.12,30.04,7,2,13,0.01
2013-7-19,86,81,76,77,75,73,92,83,74,30.11,29.99,12,4,22,0.01
2013-7-20,85,80,77,77,73,-100,89,82,71,30.06,29.96,11,6,21,0.01
2013-7-21,84,78,74,78,74,72,93,86,77,30.02,29.91,9,3,20,0.01
2013-7-22,88,80,74,78,75,72,94,84,65,29.96,29.85,8,3,16,0.00
2013-7-23,89,81,76,75,74,72,91,79,64,29.88,29.74,7,4,19,0.00
2013-7-24,82,79,77,77,75,74,92,88,79,29.79,29.72,6,2,11,0.00
2013-7-25,84,79,73,76,74,70,95,84,72,29.95,29.74,6,2,11,0.00
2013-7-26,86,79,73,78,74,70,90,83,74,30.05,29.95,5,2,10,0.00
2013-7-27,85,81,77,76,75,72,88,81,75,30.02,29.90,4,2,10,0.00
2013-7-28,85,80,75,79,76,72,94,87,78,29.99,29.88,8,3,17,0.00
2013-7-29,86,79,73,80,76,70,96,90,72,30.11,29.98,11,2,20,0.53
2013-7-30,85,79,74,78,75,73,97,88,75,30.15,30.08,5,1,9,0.01
2013-7-31,87,80,76,79,76,73,96,89,76,30.10,29.98,5,1,10,0.20
2013-8-1,83,78,74,77,74,72,97,90,77,29.98,29.89,9,2,15,1.00
2013-8-2,85,80,76,78,76,74,96,90,78,30.01,29.90,10,4,18,1.27
2013-8-3,86,82,78,79,77,75,95,87,78,30.01,29.90,6,2,11,0.90
2013-8-4,91,82,75,77,74,70,94,77,58,29.97,29.86,10,2,17,0.00
2013-8-5,85,81,79,72,68,64,77,63,52,30.03,29.94,4,1,11,0.00
2013-8-6,84,81,79,71,69,65,74,67,61,30.03,29.93,7,2,13,0.00
2013-8-7,87,81,75,77,72,68,89,76,64,30.05,29.99,6,1,12,0.01
2013-8-8,88,81,75,79,76,73,94,85,71,30.04,29.98,6,1,12,0.01
2013-8-9,85,82,78,79,77,76,95,86,76,30.08,29.98,10,4,17,0.20
2013-8-10,87,82,76,80,77,74,96,86,71,30.09,30.03,9,3,17,0.20
2013-8-11,91,83,78,81,78,75,95,84,64,30.10,30.01,8,3,16,0.00
2013-8-21,87,82,76,80,77,74,97,87,76,30.18,30.08,7,2,11,0.20
2013-8-22,85,80,75,78,76,73,95,86,74,30.11,30.00,7,2,14,0.02
2013-8-23,91,81,74,78,75,72,95,84,60,30.01,29.91,6,3,15,0.02
2013-8-24,83,78,72,75,70,66,94,79,63,30.19,29.98,6,3,15,0.02
2013-8-25,83,74,66,68,62,-100,90,71,56,30.27,30.19,8,3,19,0.00
2013-8-26,86,76,66,68,65,62,88,70,51,30.24,30.10,5,2,10,0.00
2013-8-27,82,74,67,70,67,65,94,80,60,30.11,29.99,6,2,11,0.00
2013-9-14,83,76,70,71,66,61,85,72,60,30.04,29.77,7,3,14,0.00
2013-9-15,83,73,68,75,66,-100,91,82,76,30.14,30.04,6,2,13,0.00
2013-9-16,86,80,76,76,74,72,89,81,66,30.10,29.98,7,2,12,0.03
2013-9-17,82,74,67,74,64,61,87,72,55,30.19,30.05,7,4,18,0.03
2013-9-18,70,63,59,61,56,54,83,80,74,30.19,30.16,8,5,15,0.00
2013-9-19,82,72,62,65,62,59,90,71,55,30.13,30.05,4,1,11,0.00
2013-9-20,83,74,65,69,65,61,90,74,55,30.05,29.93,4,1,9,0.00
2013-10-2,82,72,62,69,64,59,92,77,54,30.10,30.03,5,2,10,0.00
2013-10-3,83,74,64,73,69,63,95,85,70,30.12,30.06,2,0,7,0.00
2013-10-4,83,76,69,74,72,68,96,86,72,30.11,30.04,3,0,9,0.00
2013-10-5,83,75,67,74,71,66,98,89,70,30.09,30.02,2,1,8,0.01
2013-10-6,82,76,72,77,73,70,97,90,82,30.03,29.91,10,2,16,0.02
2013-10-7,78,76,73,75,73,71,96,92,86,29.91,29.79,8,3,17,0.35
2013-10-8,73,63,57,72,62,56,96,94,90,30.05,29.83,10,6,23,0.68
2013-10-9,73,64,57,63,59,56,96,85,71,30.03,29.98,11,7,24,0.62
2013-10-10,69,63,59,61,57,55,87,82,74,29.99,29.92,9,5,22,0.00
2013-10-18,76,70,65,72,68,64,97,93,87,29.96,29.87,5,1,9,0.20
2013-10-19,76,70,65,74,69,64,98,95,80,29.93,29.83,4,1,9,0.20
2013-10-20,70,64,60,64,55,-100,91,75,61,30.05,29.87,7,2,15,0.01
2013-10-21,70,63,56,59,56,52,89,78,65,30.10,29.99,5,2,11,0.01
2013-10-22,68,64,60,63,58,56,95,84,72,29.99,29.83,2,0,6,0.06
2013-10-23,72,64,56,61,53,42,97,72,38,29.96,29.70,9,3,22,0.11
2013-10-24,64,54,44,46,40,34,77,60,41,30.16,29.96,7,2,15,0.01
2013-10-25,61,54,45,46,39,35,77,58,39,30.33,30.14,8,3,17,0.00
2013-10-26,64,50,38,48,40,34,86,69,45,30.32,30.11,5,2,12,0.00
2013-10-27,66,56,47,54,45,-100,88,70,48,30.12,30.05,4,1,10,0.00
2013-10-28,71,61,54,62,54,-100,92,84,62,30.24,30.11,4,0,7,0.00
2013-10-29,73,64,55,63,60,54,96,87,70,30.29,30.21,2,1,9,0.01
2013-10-30,73,65,56,65,61,55,96,87,73,30.29,30.16,4,1,9,0.01